sat.trackr.live / text

‹ back to catalog

STARLINK-11115 [DTC]

NORAD 60305 · 2024-133E

PAYLOAD ACTIVE UNKNOWN

§ Identity

Operator
Country
US
Launch date
2024-07-28
Launch site
AFWTR
Launch vehicle
Mass (kg)
RCS (m²)

Purposes: comms

External: N2YO · Heavens-Above · Gunter

§ Orbital elements

Epoch: 2026-09-21T17:22:18.977664Z

Period
91.74 min
Inclination
53.1617°
Eccentricity
0.0001375
Mean motion
15.69709764 rev/d
Perigee alt
358.8 km
Apogee alt
360.7 km
Semi-major
6,737.9 km
B*
-4.4477e-6
RAAN
259.8328°
Arg perigee
84.2095°
Mean anomaly
275.9079°
Rev number
12,452

§ Raw data

STARLINK-11115 [DTC]1 60305U 24133E   26264.72383076 -.00001128  00000+0 -44477-5 0  99972 60305  53.1617 259.8328 0001375  84.2095 275.9079 15.69709764124527

JSON: /api/v1/satellites/60305 · /tle

For live sub-satellite position, see the globe view (requires WebGL).

§ Visibility from observer

Set your observer location to see the next 7 days of passes ≥ 10°. The values pass through the URL so the page stays shareable.

No JS? Fill the form by hand. The geolocation button needs JavaScript.